Dryden, TX

10:03 PM CDT on April 26, 2017 (GMT -0500)
Dryden

Weather History for K6R6 - December, 2013

Change the Weather History Date:

Tuesday, December 3, 2013

  Actual Average (KFST) Record (KFST)
Temperature  
Mean Temperature 70 °F -  
Max Temperature 84 °F 60 °F 84 °F (2005)
Min Temperature 57 °F 38 °F 28 °F (2006)
Cooling Degree Days 6    
Growing Degree Days 20 (Base 50)    
Moisture  
Dew Point 35 °F    
Average Humidity 31    
Maximum Humidity 50    
Minimum Humidity 19    
Precipitation  
Precipitation 0.00 in - - ()
Sea Level Pressure  
Sea Level Pressure 29.64 in    
Wind  
Wind Speed 11 mph (WSW)    
Max Wind Speed 21 mph    
Max Gust Speed 28 mph    
Averages and records for this station are not official NWS values.
T = Trace of Precipitation, MM = Missing Value Source: NWS Daily Summary

Daily Weather History Graph

Daily Weather History Graph

Search for Another Location

Airport or City:

Trip Planner

Search our weather history database for the weather conditions in past years. The results will help you decide how hot, cold, wet, or windy it might be!

Date:

Astronomy

Dec. 03, 2013 Rise Set
Actual Time 7:29 AM CST 5:48 PM CST
Civil Twilight 7:02 AM CST 6:14 PM CST
Nautical Twilight 6:33 AM CST 6:44 PM CST
Astronomical Twilight 6:04 AM CST 7:13 PM CST
Moon 8:02 AM CST (12/3) 6:52 PM CST (12/3)
Length of Visible Light 11h 11m
Length of Day
10h 19m
New Moon, 1% of the Moon is Illuminated
Dec 3
New Moon
Dec 9
First Quarter
Dec 17
Full
Dec 25
Last Quarter
Jan 1
New

Hourly Weather History & Observations

Time (CST) Temp. Dew Point Humidity Pressure Visibility Wind Dir Wind Speed Gust Speed Precip Events Conditions
12:53 AM 57.9 °F 33.1 °F 39% 29.68 in - West 8.1 mph - N/A   Unknown
1:53 AM 63.0 °F 28.9 °F 28% 29.67 in - WSW 10.4 mph - N/A   Unknown
2:53 AM 63.0 °F 28.0 °F 27% 29.65 in - WSW 12.7 mph - N/A   Unknown
3:53 AM 61.0 °F 27.0 °F 27% 29.64 in - West 9.2 mph - N/A   Unknown
4:53 AM 57.0 °F 27.0 °F 32% 29.64 in - West 10.4 mph - N/A   Unknown
5:53 AM 57.0 °F 28.0 °F 33% 29.65 in - West 11.5 mph - N/A   Unknown
6:53 AM 60.1 °F 26.1 °F 27% 29.66 in - West 11.5 mph - N/A   Unknown
7:53 AM 59.0 °F 27.0 °F 29% 29.68 in - WSW 10.4 mph - N/A   Unknown
8:53 AM 68.0 °F 30.0 °F 24% 29.69 in - WSW 13.8 mph - N/A   Unknown
9:53 AM 73.0 °F 32.0 °F 22% 29.70 in - WSW 13.8 mph - N/A   Unknown
10:53 AM 77.0 °F 34.0 °F 21% 29.70 in - WSW 20.7 mph 26.5 mph N/A   Unknown
11:53 AM 81.0 °F 36.0 °F 20% 29.67 in - SW 19.6 mph 26.5 mph N/A   Unknown
12:53 PM 82.9 °F 37.0 °F 19% 29.64 in - SW 17.3 mph 27.6 mph N/A   Unknown
1:53 PM 82.9 °F 37.0 °F 19% 29.59 in - SW 17.3 mph 25.3 mph N/A   Unknown
2:53 PM 84.0 °F 37.9 °F 19% 29.57 in - SW 18.4 mph 26.5 mph N/A   Unknown
3:53 PM 84.0 °F 37.9 °F 19% 29.56 in - SW 16.1 mph - N/A   Unknown
4:53 PM 80.1 °F 39.9 °F 24% 29.58 in - SW 15.0 mph - N/A   Unknown
5:53 PM 73.9 °F 41.0 °F 30% 29.61 in - SSW 9.2 mph - N/A   Unknown
6:53 PM 68.0 °F 42.1 °F 39% 29.63 in - SW 9.2 mph - N/A   Unknown
7:53 PM 63.0 °F 43.0 °F 48% 29.65 in - West 4.6 mph - N/A   Unknown
8:53 PM 62.1 °F 43.0 °F 50% 29.65 in - WNW 5.8 mph - N/A   Unknown
9:53 PM 64.0 °F 43.0 °F 46% 29.64 in - West 9.2 mph - N/A   Unknown
10:53 PM 63.0 °F 43.0 °F 48% 29.63 in - WNW 8.1 mph - N/A   Unknown
11:53 PM 62.1 °F 43.0 °F 50% 29.61 in - West 9.2 mph - N/A   Unknown